Time,TemperatureF,DewpointF,PressureIn,WindDirection,WindDirectionDegrees,WindSpeedMPH,WindSpeedGustMPH,Humidity,HourlyPrecipIn,Conditions,Clouds,dailyrainin,SoftwareType,DateUTC
2013-11-02 00:02:00,47.1,41.4,29.17,West,275,0.0,0.0,80,0.00,,,0.00,meteohub,2013-11-02 05:02:00,
2013-11-02 00:07:00,47.1,41.4,29.17,West,269,0.0,0.0,80,0.00,,,0.00,meteohub,2013-11-02 05:07:00,
2013-11-02 00:12:00,47.1,41.4,29.17,WNW,294,0.0,0.0,80,0.00,,,0.00,meteohub,2013-11-02 05:12:00,
2013-11-02 00:17:00,47.1,41.4,29.17,NW,306,0.0,0.0,80,0.00,,,0.00,meteohub,2013-11-02 05:17:00,
2013-11-02 00:22:00,47.1,41.4,29.17,WNW,301,0.0,0.0,80,0.00,,,0.00,meteohub,2013-11-02 05:22:00,
2013-11-02 00:27:00,47.1,41.4,29.17,West,264,0.0,0.0,80,0.00,,,0.00,meteohub,2013-11-02 05:27:00,
2013-11-02 00:32:00,47.1,41.4,29.17,WSW,256,0.0,0.0,80,0.00,,,0.00,meteohub,2013-11-02 05:32:00,
2013-11-02 00:37:00,47.1,41.4,29.17,WSW,257,0.0,0.0,80,0.00,,,0.00,meteohub,2013-11-02 05:37:00,
2013-11-02 00:42:00,46.9,41.2,29.18,West,273,0.0,0.0,80,0.00,,,0.00,meteohub,2013-11-02 05:42:00,
2013-11-02 00:47:00,46.9,41.2,29.18,West,273,0.0,0.0,80,0.00,,,0.00,meteohub,2013-11-02 05:47:00,
2013-11-02 00:52:00,46.8,41.2,29.18,West,259,0.0,0.0,81,0.00,,,0.00,meteohub,2013-11-02 05:52:00,
2013-11-02 00:57:00,46.8,41.2,29.18,WSW,257,0.0,0.0,81,0.00,,,0.00,meteohub,2013-11-02 05:57:00,
2013-11-02 01:02:00,46.8,41.2,29.18,West,272,0.0,0.0,81,0.00,,,0.00,meteohub,2013-11-02 06:02:00,
2013-11-02 01:07:00,46.6,41.0,29.18,WNW,302,0.0,0.0,81,0.00,,,0.00,meteohub,2013-11-02 06:07:00,
2013-11-02 01:12:00,46.6,41.0,29.18,NW,309,0.0,0.0,81,0.00,,,0.00,meteohub,2013-11-02 06:12:00,
2013-11-02 01:17:00,46.6,41.0,29.18,NW,306,0.0,0.0,81,0.00,,,0.00,meteohub,2013-11-02 06:17:00,
2013-11-02 01:22:00,46.4,40.8,29.18,WNW,288,0.0,0.0,81,0.00,,,0.00,meteohub,2013-11-02 06:22:00,
2013-11-02 01:27:00,46.4,40.8,29.18,NW,306,0.0,0.0,81,0.00,,,0.00,meteohub,2013-11-02 06:27:00,
2013-11-02 01:32:00,46.6,41.0,29.18,West,264,0.0,0.0,81,0.00,,,0.00,meteohub,2013-11-02 06:32:00,
2013-11-02 01:37:00,46.6,41.0,29.18,WNW,300,0.0,0.0,81,0.00,,,0.00,meteohub,2013-11-02 06:37:00,
2013-11-02 01:42:00,46.6,41.0,29.18,West,263,0.0,0.0,81,0.00,,,0.00,meteohub,2013-11-02 06:42:00,
2013-11-02 01:47:00,46.8,41.2,29.18,WSW,257,0.0,0.0,81,0.00,,,0.00,meteohub,2013-11-02 06:47:00,
2013-11-02 01:52:00,46.8,41.2,29.18,WNW,296,0.0,0.0,81,0.00,,,0.00,meteohub,2013-11-02 06:52:00,
2013-11-02 01:57:00,46.9,41.2,29.19,WNW,303,0.0,0.0,80,0.00,,,0.00,meteohub,2013-11-02 06:57:00,
2013-11-02 02:02:00,46.9,41.2,29.19,WNW,282,0.0,0.0,80,0.00,,,0.00,meteohub,2013-11-02 07:02:00,
2013-11-02 02:07:00,46.9,41.2,29.19,West,277,0.0,0.0,80,0.00,,,0.00,meteohub,2013-11-02 07:07:00,
2013-11-02 02:12:00,46.9,41.2,29.19,NW,309,0.0,0.0,80,0.00,,,0.00,meteohub,2013-11-02 07:12:00,
2013-11-02 02:17:00,46.9,41.2,29.19,WNW,286,0.0,0.0,80,0.00,,,0.00,meteohub,2013-11-02 07:17:00,
2013-11-02 02:22:00,46.9,41.2,29.19,WNW,299,0.0,0.0,80,0.00,,,0.00,meteohub,2013-11-02 07:22:00,
2013-11-02 02:27:00,47.1,41.4,29.19,West,273,0.0,0.0,80,0.00,,,0.00,meteohub,2013-11-02 07:27:00,
2013-11-02 02:32:00,47.1,41.4,29.19,NW,305,0.0,0.0,80,0.00,,,0.00,meteohub,2013-11-02 07:32:00,
2013-11-02 02:37:00,47.1,41.4,29.20,NW,312,0.0,0.0,80,0.00,,,0.00,meteohub,2013-11-02 07:37:00,
2013-11-02 02:42:00,47.1,41.4,29.20,WNW,282,0.0,0.0,80,0.00,,,0.00,meteohub,2013-11-02 07:42:00,
2013-11-02 02:47:00,47.1,41.4,29.20,WNW,286,0.0,0.0,80,0.00,,,0.00,meteohub,2013-11-02 07:47:00,
2013-11-02 02:52:00,47.1,41.4,29.20,West,271,0.0,0.0,80,0.00,,,0.00,meteohub,2013-11-02 07:52:00,
2013-11-02 02:57:00,47.1,41.4,29.20,NW,304,0.0,0.0,80,0.00,,,0.00,meteohub,2013-11-02 07:57:00,
2013-11-02 03:02:00,47.1,41.5,29.20,NW,306,0.0,0.0,81,0.00,,,0.00,meteohub,2013-11-02 08:02:00,
2013-11-02 03:07:00,46.9,41.4,29.20,WNW,294,0.0,0.0,81,0.00,,,0.00,meteohub,2013-11-02 08:07:00,
2013-11-02 03:12:00,46.9,41.4,29.20,NW,323,0.0,0.0,81,0.00,,,0.00,meteohub,2013-11-02 08:12:00,
2013-11-02 03:17:00,46.8,41.2,29.21,NW,311,0.0,0.0,81,0.00,,,0.00,meteohub,2013-11-02 08:17:00,
2013-11-02 03:22:00,46.6,41.0,29.21,WNW,290,0.0,0.0,81,0.00,,,0.00,meteohub,2013-11-02 08:22:00,
2013-11-02 03:27:00,46.4,40.8,29.21,NW,316,0.0,0.0,81,0.00,,,0.00,meteohub,2013-11-02 08:27:00,
2013-11-02 03:32:00,46.0,40.8,29.21,WNW,294,0.0,0.0,82,0.00,,,0.00,meteohub,2013-11-02 08:32:00,
2013-11-02 03:37:00,46.0,40.8,29.21,NW,304,0.0,0.0,82,0.00,,,0.00,meteohub,2013-11-02 08:37:00,
2013-11-02 03:42:00,45.9,40.6,29.21,WNW,294,0.0,0.0,82,0.00,,,0.00,meteohub,2013-11-02 08:42:00,
2013-11-02 03:47:00,45.9,40.6,29.21,NW,312,0.0,0.0,82,0.00,,,0.00,meteohub,2013-11-02 08:47:00,
2013-11-02 03:52:00,45.7,40.8,29.21,WNW,290,0.0,0.0,83,0.00,,,0.00,meteohub,2013-11-02 08:52:00,
2013-11-02 03:57:00,45.7,40.8,29.21,WNW,298,0.0,0.0,83,0.00,,,0.00,meteohub,2013-11-02 08:57:00,
2013-11-02 04:02:00,45.5,40.6,29.21,West,280,0.0,0.0,83,0.00,,,0.00,meteohub,2013-11-02 09:02:00,
2013-11-02 04:07:00,45.3,40.5,29.22,WNW,300,0.0,0.0,83,0.00,,,0.00,meteohub,2013-11-02 09:07:00,
2013-11-02 04:12:00,45.3,40.5,29.22,West,273,0.0,0.0,83,0.00,,,0.00,meteohub,2013-11-02 09:12:00,
2013-11-02 04:17:00,45.1,40.3,29.21,WNW,300,0.0,0.0,83,0.00,,,0.00,meteohub,2013-11-02 09:17:00,
2013-11-02 04:22:00,45.0,40.5,29.22,WNW,302,0.0,0.0,84,0.00,,,0.00,meteohub,2013-11-02 09:22:00,
2013-11-02 04:27:00,44.8,40.3,29.22,WNW,296,0.0,0.0,84,0.00,,,0.00,meteohub,2013-11-02 09:27:00,
2013-11-02 04:32:00,44.8,40.3,29.22,WNW,300,0.0,0.0,84,0.00,,,0.00,meteohub,2013-11-02 09:32:00,
2013-11-02 04:37:00,44.8,40.5,29.23,NNW,337,0.0,0.0,85,0.00,,,0.00,meteohub,2013-11-02 09:37:00,
2013-11-02 04:42:00,44.6,40.5,29.23,NW,319,0.0,0.0,85,0.00,,,0.00,meteohub,2013-11-02 09:42:00,
2013-11-02 04:48:00,44.4,40.3,29.23,NW,319,0.0,0.0,85,0.00,,,0.00,meteohub,2013-11-02 09:48:00,
2013-11-02 04:53:00,44.4,40.3,29.23,WSW,257,0.0,0.0,85,0.00,,,0.00,meteohub,2013-11-02 09:53:00,
2013-11-02 04:58:00,44.4,40.3,29.23,NW,321,0.0,0.0,85,0.00,,,0.00,meteohub,2013-11-02 09:58:00,
2013-11-02 05:03:00,44.2,40.1,29.23,West,274,0.0,0.0,85,0.00,,,0.00,meteohub,2013-11-02 10:03:00,
2013-11-02 05:08:00,44.2,40.3,29.23,NW,319,0.0,0.0,86,0.00,,,0.00,meteohub,2013-11-02 10:08:00,
2013-11-02 05:13:00,44.2,40.1,29.23,WNW,298,0.0,0.0,85,0.00,,,0.00,meteohub,2013-11-02 10:13:00,
2013-11-02 05:18:00,44.1,40.1,29.23,North,9,0.0,0.0,86,0.00,,,0.00,meteohub,2013-11-02 10:18:00,
2013-11-02 05:23:00,44.1,40.1,29.24,NW,311,0.0,0.0,86,0.00,,,0.00,meteohub,2013-11-02 10:23:00,
2013-11-02 05:28:00,44.1,40.1,29.24,NNW,332,0.0,0.0,86,0.00,,,0.00,meteohub,2013-11-02 10:28:00,
2013-11-02 05:33:00,44.1,40.1,29.25,NW,304,0.0,0.0,86,0.00,,,0.00,meteohub,2013-11-02 10:33:00,
2013-11-02 05:38:00,44.2,40.6,29.25,NW,310,0.0,0.0,87,0.00,,,0.00,meteohub,2013-11-02 10:38:00,
2013-11-02 05:43:00,44.2,40.6,29.25,WNW,290,0.0,0.0,87,0.00,,,0.00,meteohub,2013-11-02 10:43:00,
2013-11-02 05:48:00,44.2,40.6,29.26,NW,319,0.0,0.0,87,0.00,,,0.00,meteohub,2013-11-02 10:48:00,
2013-11-02 05:53:00,44.2,40.6,29.26,NNW,339,0.0,0.0,87,0.00,,,0.00,meteohub,2013-11-02 10:53:00,
2013-11-02 05:58:00,44.2,40.6,29.26,WNW,296,0.0,0.0,87,0.00,,,0.00,meteohub,2013-11-02 10:58:00,
2013-11-02 06:03:00,44.4,40.8,29.27,NW,308,0.0,0.0,87,0.00,,,0.00,meteohub,2013-11-02 11:03:00,
2013-11-02 06:08:00,44.4,40.8,29.27,NNW,333,0.0,0.0,87,0.00,,,0.00,meteohub,2013-11-02 11:08:00,
2013-11-02 06:13:00,44.4,40.8,29.27,NW,325,0.0,0.0,87,0.00,,,0.00,meteohub,2013-11-02 11:13:00,
2013-11-02 06:18:00,44.6,41.0,29.27,NW,311,0.0,0.0,87,0.00,,,0.00,meteohub,2013-11-02 11:18:00,
2013-11-02 06:23:00,44.8,41.2,29.27,NW,306,0.0,0.0,87,0.00,,,0.00,meteohub,2013-11-02 11:23:00,
2013-11-02 06:28:00,44.8,41.2,29.28,WNW,302,0.0,0.0,87,0.00,,,0.00,meteohub,2013-11-02 11:28:00,
2013-11-02 06:33:00,45.0,41.4,29.28,North,355,0.0,0.0,87,0.00,,,0.00,meteohub,2013-11-02 11:33:00,
2013-11-02 06:38:00,45.0,41.4,29.28,NNW,333,0.0,0.0,87,0.00,,,0.00,meteohub,2013-11-02 11:38:00,
2013-11-02 06:43:00,45.0,41.0,29.28,North,355,0.0,0.0,86,0.00,,,0.00,meteohub,2013-11-02 11:43:00,
2013-11-02 06:48:00,45.0,41.0,29.28,WNW,297,0.0,0.0,86,0.00,,,0.00,meteohub,2013-11-02 11:48:00,
2013-11-02 06:53:00,44.8,40.8,29.29,NNW,346,0.0,0.0,86,0.00,,,0.00,meteohub,2013-11-02 11:53:00,
2013-11-02 06:58:00,44.8,40.8,29.29,NW,305,0.0,0.0,86,0.00,,,0.00,meteohub,2013-11-02 11:58:00,
2013-11-02 07:03:00,44.8,40.8,29.29,North,0,0.0,0.0,86,0.00,,,0.00,meteohub,2013-11-02 12:03:00,
2013-11-02 07:08:00,44.8,40.8,29.29,WNW,298,0.0,0.0,86,0.00,,,0.00,meteohub,2013-11-02 12:08:00,
2013-11-02 07:13:00,44.8,40.8,29.30,NNW,346,0.0,0.0,86,0.00,,,0.00,meteohub,2013-11-02 12:13:00,
2013-11-02 07:18:00,44.8,40.8,29.30,NW,306,0.0,0.0,86,0.00,,,0.00,meteohub,2013-11-02 12:18:00,
2013-11-02 07:23:00,44.8,40.8,29.30,NNW,336,0.0,0.0,86,0.00,,,0.00,meteohub,2013-11-02 12:23:00,
2013-11-02 07:28:00,45.0,41.0,29.30,NNW,330,0.0,0.0,86,0.00,,,0.00,meteohub,2013-11-02 12:28:00,
2013-11-02 07:33:00,45.0,41.0,29.30,NNW,341,0.0,0.0,86,0.00,,,0.00,meteohub,2013-11-02 12:33:00,
2013-11-02 07:38:00,45.0,40.6,29.31,North,5,0.0,0.0,85,0.00,,,0.00,meteohub,2013-11-02 12:38:00,
2013-11-02 07:43:00,45.0,40.6,29.31,NNW,347,0.0,0.0,85,0.00,,,0.00,meteohub,2013-11-02 12:43:00,
2013-11-02 07:48:00,44.8,40.3,29.31,NNW,332,0.0,0.0,84,0.00,,,0.00,meteohub,2013-11-02 12:48:00,
2013-11-02 07:53:00,44.8,40.3,29.31,NNW,345,0.0,0.0,84,0.00,,,0.00,meteohub,2013-11-02 12:53:00,
2013-11-02 07:58:00,44.6,40.1,29.32,North,9,0.0,0.0,84,0.00,,,0.00,meteohub,2013-11-02 12:58:00,
2013-11-02 08:03:00,44.6,40.1,29.32,NW,315,0.0,0.0,84,0.00,,,0.00,meteohub,2013-11-02 13:03:00,
2013-11-02 08:08:00,44.4,39.9,29.32,North,10,0.0,0.0,84,0.00,,,0.00,meteohub,2013-11-02 13:08:00,
2013-11-02 08:13:00,44.4,39.9,29.33,NNW,339,0.0,0.0,84,0.00,,,0.00,meteohub,2013-11-02 13:13:00,
2013-11-02 08:18:00,44.6,39.7,29.34,NNW,329,0.0,0.0,83,0.00,,,0.00,meteohub,2013-11-02 13:18:00,
2013-11-02 08:23:00,44.6,39.7,29.34,NW,313,0.0,0.0,83,0.00,,,0.00,meteohub,2013-11-02 13:23:00,
2013-11-02 08:28:00,44.4,39.6,29.34,NNW,338,0.0,0.0,83,0.00,,,0.00,meteohub,2013-11-02 13:28:00,
2013-11-02 08:33:00,44.4,39.2,29.34,NNW,331,0.0,0.0,82,0.00,,,0.00,meteohub,2013-11-02 13:33:00,
2013-11-02 08:38:00,44.8,39.6,29.35,NW,316,0.0,0.0,82,0.00,,,0.00,meteohub,2013-11-02 13:38:00,
2013-11-02 08:43:00,44.8,39.4,29.35,NW,304,0.0,0.0,81,0.00,,,0.00,meteohub,2013-11-02 13:43:00,
2013-11-02 08:48:00,45.1,39.7,29.36,NNW,336,0.0,0.0,81,0.00,,,0.00,meteohub,2013-11-02 13:48:00,
2013-11-02 08:53:00,45.5,39.7,29.36,North,5,0.0,0.0,80,0.00,,,0.00,meteohub,2013-11-02 13:53:00,
2013-11-02 08:58:00,45.9,39.7,29.36,NNE,23,0.0,0.0,79,0.00,,,0.00,meteohub,2013-11-02 13:58:00,
2013-11-02 09:03:00,45.9,39.4,29.36,WNW,298,0.0,0.0,78,0.00,,,0.00,meteohub,2013-11-02 14:03:00,
2013-11-02 09:08:00,45.9,39.0,29.37,NW,314,0.0,0.0,77,0.00,,,0.00,meteohub,2013-11-02 14:08:00,
2013-11-02 09:13:00,45.9,39.0,29.37,NNW,339,0.0,0.0,77,0.00,,,0.00,meteohub,2013-11-02 14:13:00,
2013-11-02 09:18:00,46.0,38.5,29.37,NNW,344,0.0,0.0,75,0.00,,,0.00,meteohub,2013-11-02 14:18:00,
2013-11-02 09:23:00,46.0,38.3,29.37,North,351,0.0,0.0,74,0.00,,,0.00,meteohub,2013-11-02 14:23:00,
2013-11-02 09:28:00,46.0,37.9,29.37,North,355,0.0,0.0,73,0.00,,,0.00,meteohub,2013-11-02 14:28:00,
2013-11-02 09:34:00,46.2,38.1,29.38,North,355,0.0,0.0,73,0.00,,,0.00,meteohub,2013-11-02 14:34:00,
2013-11-02 09:39:00,46.6,37.8,29.38,North,351,0.0,0.0,71,0.00,,,0.00,meteohub,2013-11-02 14:39:00,
2013-11-02 09:44:00,46.8,37.6,29.38,NNW,340,0.0,0.0,70,0.00,,,0.00,meteohub,2013-11-02 14:44:00,
2013-11-02 09:49:00,46.9,37.2,29.38,NNW,346,0.0,0.0,69,0.00,,,0.00,meteohub,2013-11-02 14:49:00,
2013-11-02 09:54:00,46.9,36.9,29.38,North,355,0.0,0.0,68,0.00,,,0.00,meteohub,2013-11-02 14:54:00,
2013-11-02 09:59:00,47.5,37.8,29.39,NNW,348,0.0,0.0,69,0.00,,,0.00,meteohub,2013-11-02 14:59:00,
2013-11-02 10:04:00,47.7,37.2,29.38,NNE,13,0.0,0.0,67,0.00,,,0.00,meteohub,2013-11-02 15:04:00,
2013-11-02 10:09:00,47.8,37.0,29.39,North,355,0.0,0.0,66,0.00,,,0.00,meteohub,2013-11-02 15:09:00,
2013-11-02 10:14:00,48.0,37.2,29.39,NNW,339,0.0,0.0,66,0.00,,,0.00,meteohub,2013-11-02 15:14:00,
2013-11-02 10:19:00,48.6,37.4,29.39,North,5,0.0,0.0,65,0.00,,,0.00,meteohub,2013-11-02 15:19:00,
2013-11-02 10:24:00,48.6,36.9,29.39,North,350,0.0,0.0,64,0.00,,,0.00,meteohub,2013-11-02 15:24:00,
2013-11-02 10:29:00,48.6,36.9,29.39,North,355,0.0,0.0,64,0.00,,,0.00,meteohub,2013-11-02 15:29:00,
2013-11-02 10:34:00,48.9,36.9,29.39,NNW,329,0.0,0.0,63,0.00,,,0.00,meteohub,2013-11-02 15:34:00,
2013-11-02 10:39:00,49.1,36.7,29.39,NNE,15,0.0,0.0,62,0.00,,,0.00,meteohub,2013-11-02 15:39:00,
2013-11-02 10:44:00,49.3,36.9,29.40,North,5,0.0,0.0,62,0.00,,,0.00,meteohub,2013-11-02 15:44:00,
2013-11-02 10:49:00,49.5,36.5,29.40,WNW,303,0.0,0.0,61,0.00,,,0.00,meteohub,2013-11-02 15:49:00,
2013-11-02 10:54:00,49.6,36.7,29.39,North,355,0.0,0.0,61,0.00,,,0.00,meteohub,2013-11-02 15:54:00,
2013-11-02 10:59:00,49.8,35.6,29.40,North,349,0.0,0.0,58,0.00,,,0.00,meteohub,2013-11-02 15:59:00,
2013-11-02 11:04:00,49.8,36.1,29.40,North,350,0.0,0.0,59,0.00,,,0.00,meteohub,2013-11-02 16:04:00,
2013-11-02 11:09:00,49.8,36.5,29.40,NNW,344,0.0,0.0,60,0.00,,,0.00,meteohub,2013-11-02 16:09:00,
2013-11-02 11:14:00,50.2,36.9,29.40,NNE,22,0.0,0.0,60,0.00,,,0.00,meteohub,2013-11-02 16:14:00,
2013-11-02 11:19:00,50.5,37.2,29.40,North,350,0.0,0.0,60,0.00,,,0.00,meteohub,2013-11-02 16:19:00,
2013-11-02 11:24:00,50.7,37.4,29.40,North,5,0.0,0.0,60,0.00,,,0.00,meteohub,2013-11-02 16:24:00,
2013-11-02 11:29:00,50.5,37.2,29.41,NW,319,0.0,0.0,60,0.00,,,0.00,meteohub,2013-11-02 16:29:00,
2013-11-02 11:34:00,50.5,37.6,29.40,North,351,0.0,0.0,61,0.00,,,0.00,meteohub,2013-11-02 16:34:00,
2013-11-02 11:39:00,50.5,37.9,29.41,NNW,331,0.0,0.0,62,0.00,,,0.00,meteohub,2013-11-02 16:39:00,
2013-11-02 11:44:00,50.7,38.1,29.40,NW,324,0.0,0.0,62,0.00,,,0.00,meteohub,2013-11-02 16:44:00,
2013-11-02 11:49:00,50.9,38.8,29.40,NW,321,0.0,0.0,63,0.00,,,0.00,meteohub,2013-11-02 16:49:00,
2013-11-02 11:54:00,51.1,38.5,29.41,NNW,348,0.0,0.0,62,0.00,,,0.00,meteohub,2013-11-02 16:54:00,
2013-11-02 11:59:00,51.1,38.5,29.41,North,349,0.0,0.0,62,0.00,,,0.00,meteohub,2013-11-02 16:59:00,
2013-11-02 12:04:00,51.3,39.0,29.41,NNW,348,0.0,0.0,63,0.00,,,0.00,meteohub,2013-11-02 17:04:00,
2013-11-02 12:09:00,51.3,38.3,29.41,North,355,0.0,0.0,61,0.00,,,0.00,meteohub,2013-11-02 17:09:00,
2013-11-02 12:15:00,51.1,38.5,29.42,North,355,0.0,0.0,62,0.00,,,0.00,meteohub,2013-11-02 17:15:00,
2013-11-02 12:19:00,50.7,38.1,29.42,NNW,346,0.0,0.0,62,0.00,,,0.00,meteohub,2013-11-02 17:19:00,
2013-11-02 12:24:00,50.7,38.7,29.42,NNW,344,0.0,0.0,63,0.00,,,0.00,meteohub,2013-11-02 17:24:00,
2013-11-02 12:29:00,50.7,38.7,29.42,North,9,0.0,0.0,63,0.00,,,0.00,meteohub,2013-11-02 17:29:00,
2013-11-02 12:34:00,50.7,38.7,29.42,North,355,0.0,0.0,63,0.00,,,0.00,meteohub,2013-11-02 17:34:00,
2013-11-02 12:39:00,50.7,39.0,29.42,North,355,0.0,0.0,64,0.00,,,0.00,meteohub,2013-11-02 17:39:00,
2013-11-02 12:44:00,50.7,39.0,29.42,NW,324,0.0,0.0,64,0.00,,,0.00,meteohub,2013-11-02 17:44:00,
2013-11-02 12:49:00,50.9,39.2,29.42,NNW,341,0.0,0.0,64,0.00,,,0.00,meteohub,2013-11-02 17:49:00,
2013-11-02 12:54:00,51.3,39.0,29.42,North,355,0.0,0.0,63,0.00,,,0.00,meteohub,2013-11-02 17:54:00,
2013-11-02 12:59:00,51.4,39.2,29.42,NNW,327,0.0,0.0,63,0.00,,,0.00,meteohub,2013-11-02 17:59:00,
2013-11-02 13:05:00,51.6,38.7,29.41,NW,326,0.0,0.0,61,0.00,,,0.00,meteohub,2013-11-02 18:05:00,
2013-11-02 13:09:00,51.4,38.5,29.41,North,5,0.0,0.0,61,0.00,,,0.00,meteohub,2013-11-02 18:09:00,
2013-11-02 13:15:00,51.4,38.5,29.41,West,280,0.0,0.0,61,0.00,,,0.00,meteohub,2013-11-02 18:15:00,
2013-11-02 13:20:00,51.4,38.8,29.41,NNW,342,0.0,0.0,62,0.00,,,0.00,meteohub,2013-11-02 18:20:00,
2013-11-02 13:25:00,51.6,38.7,29.41,WNW,289,0.0,0.0,61,0.00,,,0.00,meteohub,2013-11-02 18:25:00,
2013-11-02 13:30:00,51.4,37.9,29.42,NNW,331,0.0,0.0,60,0.00,,,0.00,meteohub,2013-11-02 18:30:00,
2013-11-02 13:35:00,51.3,37.8,29.41,NNW,341,0.0,0.0,60,0.00,,,0.00,meteohub,2013-11-02 18:35:00,
2013-11-02 13:40:00,51.1,38.1,29.41,NNW,341,0.0,0.0,61,0.00,,,0.00,meteohub,2013-11-02 18:40:00,
2013-11-02 13:45:00,51.1,38.5,29.41,NNW,327,0.0,0.0,62,0.00,,,0.00,meteohub,2013-11-02 18:45:00,
2013-11-02 13:50:00,51.3,38.7,29.42,NW,319,0.0,0.0,62,0.00,,,0.00,meteohub,2013-11-02 18:50:00,
2013-11-02 13:55:00,51.1,38.5,29.42,NW,324,0.0,0.0,62,0.00,,,0.00,meteohub,2013-11-02 18:55:00,
2013-11-02 14:00:00,51.8,38.8,29.42,WNW,289,0.0,0.0,61,0.00,,,0.00,meteohub,2013-11-02 19:00:00,
2013-11-02 14:05:00,52.0,39.0,29.42,North,355,0.0,0.0,61,0.00,,,0.00,meteohub,2013-11-02 19:05:00,
2013-11-02 14:10:00,51.6,38.7,29.42,North,5,0.0,0.0,61,0.00,,,0.00,meteohub,2013-11-02 19:10:00,
2013-11-02 14:15:00,51.4,38.5,29.42,NNW,336,0.0,0.0,61,0.00,,,0.00,meteohub,2013-11-02 19:15:00,
2013-11-02 14:20:00,51.3,38.7,29.42,NW,313,0.0,0.0,62,0.00,,,0.00,meteohub,2013-11-02 19:20:00,
2013-11-02 14:25:00,51.3,38.7,29.42,North,349,0.0,0.0,62,0.00,,,0.00,meteohub,2013-11-02 19:25:00,
2013-11-02 14:30:00,52.0,39.0,29.42,NNW,340,0.0,0.0,61,0.00,,,0.00,meteohub,2013-11-02 19:30:00,
2013-11-02 14:35:00,52.3,38.5,29.42,North,355,0.0,0.0,59,0.00,,,0.00,meteohub,2013-11-02 19:35:00,
2013-11-02 14:40:00,52.3,36.1,29.42,NNW,340,0.0,0.0,54,0.00,,,0.00,meteohub,2013-11-02 19:40:00,
2013-11-02 14:45:00,52.3,36.1,29.42,NW,315,0.0,0.0,54,0.00,,,0.00,meteohub,2013-11-02 19:45:00,
2013-11-02 14:50:00,53.1,36.3,29.42,WNW,302,0.0,0.0,53,0.00,,,0.00,meteohub,2013-11-02 19:50:00,
2013-11-02 14:55:00,53.2,36.1,29.42,NNW,342,0.0,0.0,52,0.00,,,0.00,meteohub,2013-11-02 19:55:00,
2013-11-02 15:00:00,53.1,36.3,29.42,North,355,0.0,0.0,53,0.00,,,0.00,meteohub,2013-11-02 20:00:00,
2013-11-02 15:05:00,53.2,36.5,29.42,NW,313,0.0,0.0,53,0.00,,,0.00,meteohub,2013-11-02 20:05:00,
2013-11-02 15:10:00,54.0,34.7,29.42,NNW,340,0.0,0.0,48,0.00,,,0.00,meteohub,2013-11-02 20:10:00,
2013-11-02 15:15:00,54.1,34.9,29.42,NNW,335,0.0,0.0,48,0.00,,,0.00,meteohub,2013-11-02 20:15:00,
2013-11-02 15:20:00,53.8,35.6,29.42,North,9,0.0,0.0,50,0.00,,,0.00,meteohub,2013-11-02 20:20:00,
2013-11-02 15:25:00,53.2,35.6,29.42,NW,322,0.0,0.0,51,0.00,,,0.00,meteohub,2013-11-02 20:25:00,
2013-11-02 15:30:00,52.9,34.7,29.42,NNW,340,0.0,0.0,50,0.00,,,0.00,meteohub,2013-11-02 20:30:00,
2013-11-02 15:35:00,52.7,34.2,29.42,North,355,0.0,0.0,49,0.00,,,0.00,meteohub,2013-11-02 20:35:00,
2013-11-02 15:40:00,52.5,34.0,29.42,NNW,347,0.0,0.0,49,0.00,,,0.00,meteohub,2013-11-02 20:40:00,
2013-11-02 15:45:00,52.3,34.2,29.42,North,349,0.0,0.0,50,0.00,,,0.00,meteohub,2013-11-02 20:45:00,
2013-11-02 15:50:00,52.3,34.2,29.42,NNW,347,0.0,0.0,50,0.00,,,0.00,meteohub,2013-11-02 20:50:00,
2013-11-02 15:55:00,52.2,34.5,29.43,North,355,0.0,0.0,51,0.00,,,0.00,meteohub,2013-11-02 20:55:00,
2013-11-02 16:00:00,52.2,34.5,29.42,NW,320,0.0,0.0,51,0.00,,,0.00,meteohub,2013-11-02 21:00:00,
2013-11-02 16:05:00,52.0,34.3,29.42,North,10,0.0,0.0,51,0.00,,,0.00,meteohub,2013-11-02 21:05:00,
2013-11-02 16:10:00,52.0,34.3,29.42,NNW,332,0.0,0.0,51,0.00,,,0.00,meteohub,2013-11-02 21:10:00,
2013-11-02 16:15:00,51.8,34.2,29.43,NW,316,0.0,0.0,51,0.00,,,0.00,meteohub,2013-11-02 21:15:00,
2013-11-02 16:20:00,51.6,34.2,29.43,NNW,341,0.0,0.0,51,0.00,,,0.00,meteohub,2013-11-02 21:20:00,
2013-11-02 16:25:00,51.6,34.2,29.43,WNW,297,0.0,0.0,51,0.00,,,0.00,meteohub,2013-11-02 21:25:00,
2013-11-02 16:30:00,51.8,34.2,29.43,North,9,0.0,0.0,51,0.00,,,0.00,meteohub,2013-11-02 21:30:00,
2013-11-02 16:35:00,52.0,34.0,29.43,WNW,298,0.0,0.0,50,0.00,,,0.00,meteohub,2013-11-02 21:35:00,
2013-11-02 16:40:00,52.0,34.0,29.43,NNW,334,0.0,0.0,50,0.00,,,0.00,meteohub,2013-11-02 21:40:00,
2013-11-02 16:45:00,52.2,33.6,29.43,NNW,335,0.0,0.0,49,0.00,,,0.00,meteohub,2013-11-02 21:45:00,
2013-11-02 16:50:00,52.3,33.3,29.43,WNW,302,0.0,0.0,48,0.00,,,0.00,meteohub,2013-11-02 21:50:00,
2013-11-02 16:55:00,52.5,33.4,29.43,NW,319,0.0,0.0,48,0.00,,,0.00,meteohub,2013-11-02 21:55:00,
2013-11-02 17:00:00,52.5,32.9,29.43,NW,312,0.0,0.0,47,0.00,,,0.00,meteohub,2013-11-02 22:00:00,
2013-11-02 17:06:00,52.7,32.5,29.44,NNW,347,0.0,0.0,46,0.00,,,0.00,meteohub,2013-11-02 22:06:00,
2013-11-02 17:11:00,52.7,32.5,29.44,NNW,346,0.0,0.0,46,0.00,,,0.00,meteohub,2013-11-02 22:11:00,
2013-11-02 17:16:00,52.7,32.5,29.43,NNW,344,0.0,0.0,46,0.00,,,0.00,meteohub,2013-11-02 22:16:00,
2013-11-02 17:21:00,52.7,32.5,29.44,NNW,342,0.0,0.0,46,0.00,,,0.00,meteohub,2013-11-02 22:21:00,
2013-11-02 17:26:00,52.5,32.4,29.44,North,355,0.0,0.0,46,0.00,,,0.00,meteohub,2013-11-02 22:26:00,
2013-11-02 17:31:00,52.3,32.7,29.44,NW,324,0.0,0.0,47,0.00,,,0.00,meteohub,2013-11-02 22:31:00,
2013-11-02 17:36:00,52.2,32.5,29.44,NNW,327,0.0,0.0,47,0.00,,,0.00,meteohub,2013-11-02 22:36:00,
2013-11-02 17:41:00,52.0,32.4,29.44,North,355,0.0,0.0,47,0.00,,,0.00,meteohub,2013-11-02 22:41:00,
2013-11-02 17:46:00,51.8,32.2,29.44,NNW,344,0.0,0.0,47,0.00,,,0.00,meteohub,2013-11-02 22:46:00,
2013-11-02 17:51:00,51.6,32.5,29.44,North,350,0.0,0.0,48,0.00,,,0.00,meteohub,2013-11-02 22:51:00,
2013-11-02 17:56:00,51.4,32.4,29.44,North,0,0.0,0.0,48,0.00,,,0.00,meteohub,2013-11-02 22:56:00,
2013-11-02 18:01:00,51.3,32.2,29.44,North,351,0.0,0.0,48,0.00,,,0.00,meteohub,2013-11-02 23:01:00,
2013-11-02 18:06:00,51.1,32.5,29.44,North,355,0.0,0.0,49,0.00,,,0.00,meteohub,2013-11-02 23:06:00,
2013-11-02 18:11:00,50.7,32.2,29.45,North,351,0.0,0.0,49,0.00,,,0.00,meteohub,2013-11-02 23:11:00,
2013-11-02 18:16:00,50.5,32.5,29.45,North,351,0.0,0.0,50,0.00,,,0.00,meteohub,2013-11-02 23:16:00,
2013-11-02 18:21:00,50.4,32.4,29.45,North,351,0.0,0.0,50,0.00,,,0.00,meteohub,2013-11-02 23:21:00,
2013-11-02 18:26:00,50.2,32.2,29.45,North,351,0.0,0.0,50,0.00,,,0.00,meteohub,2013-11-02 23:26:00,
2013-11-02 18:31:00,49.8,32.4,29.45,North,351,0.0,0.0,51,0.00,,,0.00,meteohub,2013-11-02 23:31:00,
2013-11-02 18:36:00,49.6,32.7,29.46,North,351,0.0,0.0,52,0.00,,,0.00,meteohub,2013-11-02 23:36:00,
2013-11-02 18:41:00,49.5,32.5,29.46,North,351,0.0,0.0,52,0.00,,,0.00,meteohub,2013-11-02 23:41:00,
2013-11-02 18:46:00,49.1,32.7,29.46,North,351,0.0,0.0,53,0.00,,,0.00,meteohub,2013-11-02 23:46:00,
2013-11-02 18:51:00,48.7,32.4,29.46,North,351,0.0,0.0,53,0.00,,,0.00,meteohub,2013-11-02 23:51:00,
2013-11-02 18:56:00,48.6,32.7,29.47,North,351,0.0,0.0,54,0.00,,,0.00,meteohub,2013-11-02 23:56:00,
2013-11-02 19:01:00,48.4,32.5,29.47,North,351,0.0,0.0,54,0.00,,,0.00,meteohub,2013-11-03 00:01:00,
2013-11-02 19:06:00,48.0,32.2,29.47,North,351,0.0,0.0,54,0.00,,,0.00,meteohub,2013-11-03 00:06:00,
2013-11-02 19:11:00,47.8,32.5,29.47,North,351,0.0,0.0,55,0.00,,,0.00,meteohub,2013-11-03 00:11:00,
2013-11-02 19:16:00,47.7,32.4,29.47,North,351,0.0,0.0,55,0.00,,,0.00,meteohub,2013-11-03 00:16:00,
2013-11-02 19:21:00,47.5,32.5,29.47,North,351,0.0,0.0,56,0.00,,,0.00,meteohub,2013-11-03 00:21:00,
2013-11-02 19:26:00,47.1,32.7,29.47,North,351,0.0,0.0,57,0.00,,,0.00,meteohub,2013-11-03 00:26:00,
2013-11-02 19:31:00,46.9,32.5,29.47,North,351,0.0,0.0,57,0.00,,,0.00,meteohub,2013-11-03 00:31:00,
2013-11-02 19:36:00,46.8,32.4,29.47,North,351,0.0,0.0,57,0.00,,,0.00,meteohub,2013-11-03 00:36:00,
2013-11-02 19:41:00,46.6,32.2,29.48,North,351,0.0,0.0,57,0.00,,,0.00,meteohub,2013-11-03 00:41:00,
2013-11-02 19:46:00,46.4,32.4,29.48,North,351,0.0,0.0,58,0.00,,,0.00,meteohub,2013-11-03 00:46:00,
2013-11-02 19:51:00,46.2,32.7,29.48,North,351,0.0,0.0,59,0.00,,,0.00,meteohub,2013-11-03 00:51:00,
2013-11-02 19:56:00,46.2,32.7,29.48,North,351,0.0,0.0,59,0.00,,,0.00,meteohub,2013-11-03 00:56:00,
2013-11-02 20:01:00,46.0,32.5,29.48,North,351,0.0,0.0,59,0.00,,,0.00,meteohub,2013-11-03 01:01:00,
2013-11-02 20:06:00,46.0,32.5,29.48,North,351,0.0,0.0,59,0.00,,,0.00,meteohub,2013-11-03 01:06:00,
2013-11-02 20:11:00,46.0,32.5,29.48,North,351,0.0,0.0,59,0.00,,,0.00,meteohub,2013-11-03 01:11:00,
2013-11-02 20:16:00,46.0,32.5,29.48,North,351,0.0,0.0,59,0.00,,,0.00,meteohub,2013-11-03 01:16:00,
2013-11-02 20:21:00,46.0,32.5,29.49,North,351,0.0,0.0,59,0.00,,,0.00,meteohub,2013-11-03 01:21:00,
2013-11-02 20:26:00,45.9,32.7,29.49,North,351,0.0,0.0,60,0.00,,,0.00,meteohub,2013-11-03 01:26:00,
2013-11-02 20:31:00,45.9,32.7,29.49,North,351,0.0,0.0,60,0.00,,,0.00,meteohub,2013-11-03 01:31:00,
2013-11-02 20:36:00,45.9,32.7,29.49,North,351,0.0,0.0,60,0.00,,,0.00,meteohub,2013-11-03 01:36:00,
2013-11-02 20:41:00,45.7,32.5,29.49,North,351,0.0,0.0,60,0.00,,,0.00,meteohub,2013-11-03 01:41:00,
2013-11-02 20:46:00,45.3,32.7,29.49,North,351,0.0,0.0,61,0.00,,,0.00,meteohub,2013-11-03 01:46:00,
2013-11-02 20:51:00,45.1,32.9,29.49,North,351,0.0,0.0,62,0.00,,,0.00,meteohub,2013-11-03 01:51:00,
2013-11-02 20:56:00,45.0,32.7,29.49,North,351,0.0,0.0,62,0.00,,,0.00,meteohub,2013-11-03 01:56:00,
2013-11-02 21:01:00,44.6,32.7,29.49,North,351,0.0,0.0,63,0.00,,,0.00,meteohub,2013-11-03 02:01:00,
2013-11-02 21:06:00,44.2,32.9,29.49,North,351,0.0,0.0,64,0.00,,,0.00,meteohub,2013-11-03 02:06:00,
2013-11-02 21:11:00,44.1,32.7,29.49,North,351,0.0,0.0,64,0.00,,,0.00,meteohub,2013-11-03 02:11:00,
2013-11-02 21:16:00,43.9,32.9,29.49,North,351,0.0,0.0,65,0.00,,,0.00,meteohub,2013-11-03 02:16:00,
2013-11-02 21:21:00,43.9,32.9,29.48,North,351,0.0,0.0,65,0.00,,,0.00,meteohub,2013-11-03 02:21:00,
2013-11-02 21:26:00,43.9,32.9,29.49,North,351,0.0,0.0,65,0.00,,,0.00,meteohub,2013-11-03 02:26:00,
2013-11-02 21:31:00,43.9,32.9,29.48,North,351,0.0,0.0,65,0.00,,,0.00,meteohub,2013-11-03 02:31:00,
2013-11-02 21:36:00,43.7,33.1,29.48,North,351,0.0,0.0,66,0.00,,,0.00,meteohub,2013-11-03 02:36:00,
2013-11-02 21:41:00,43.5,33.3,29.48,North,351,0.0,0.0,67,0.00,,,0.00,meteohub,2013-11-03 02:41:00,
2013-11-02 21:46:00,43.3,33.1,29.49,North,351,0.0,0.0,67,0.00,,,0.00,meteohub,2013-11-03 02:46:00,
2013-11-02 21:51:00,43.2,33.3,29.48,North,351,0.0,0.0,68,0.00,,,0.00,meteohub,2013-11-03 02:51:00,
2013-11-02 21:56:00,42.8,32.9,29.48,North,351,0.0,0.0,68,0.00,,,0.00,meteohub,2013-11-03 02:56:00,
2013-11-02 22:01:00,42.6,33.1,29.48,North,351,0.0,0.0,69,0.00,,,0.00,meteohub,2013-11-03 03:01:00,
2013-11-02 22:06:00,42.4,33.1,29.49,North,351,0.0,0.0,69,0.00,,,0.00,meteohub,2013-11-03 03:06:00,
2013-11-02 22:11:00,42.3,33.3,29.49,North,351,0.0,0.0,70,0.00,,,0.00,meteohub,2013-11-03 03:11:00,
2013-11-02 22:16:00,42.3,33.3,29.49,North,351,0.0,0.0,70,0.00,,,0.00,meteohub,2013-11-03 03:16:00,
2013-11-02 22:21:00,42.1,33.1,29.49,North,351,0.0,0.0,70,0.00,,,0.00,meteohub,2013-11-03 03:21:00,
2013-11-02 22:26:00,42.1,33.1,29.49,WSW,239,0.0,0.0,70,0.00,,,0.00,meteohub,2013-11-03 03:26:00,
2013-11-02 22:31:00,41.7,33.1,29.49,WSW,239,0.0,0.0,71,0.00,,,0.00,meteohub,2013-11-03 03:31:00,
2013-11-02 22:36:00,41.7,33.1,29.50,SW,220,0.0,0.0,71,0.00,,,0.00,meteohub,2013-11-03 03:36:00,
2013-11-02 22:41:00,41.5,33.3,29.49,SW,221,0.0,0.0,72,0.00,,,0.00,meteohub,2013-11-03 03:41:00,
2013-11-02 22:47:00,41.5,33.3,29.49,SW,223,0.0,0.0,72,0.00,,,0.00,meteohub,2013-11-03 03:47:00,
2013-11-02 22:52:00,41.4,33.1,29.49,SW,223,0.0,0.0,72,0.00,,,0.00,meteohub,2013-11-03 03:52:00,
2013-11-02 22:57:00,41.4,33.1,29.49,SW,217,0.0,0.0,72,0.00,,,0.00,meteohub,2013-11-03 03:57:00,
2013-11-02 23:01:00,41.4,33.1,29.49,SW,218,0.0,0.0,72,0.00,,,0.00,meteohub,2013-11-03 04:01:00,
2013-11-02 23:02:00,41.4,33.4,29.49,SW,218,0.0,0.0,73,0.00,,,0.00,meteohub,2013-11-03 04:02:00,
2013-11-02 23:03:00,41.4,33.4,29.49,SW,218,0.0,0.0,73,0.00,,,0.00,meteohub,2013-11-03 04:03:00,
2013-11-02 23:08:00,41.2,33.3,29.49,SW,218,0.0,0.0,73,0.00,,,0.00,meteohub,2013-11-03 04:08:00,
2013-11-02 23:13:00,41.2,33.3,29.49,SW,227,0.0,0.0,73,0.00,,,0.00,meteohub,2013-11-03 04:13:00,
2013-11-02 23:18:00,40.8,33.3,29.49,SW,233,0.0,0.0,74,0.00,,,0.00,meteohub,2013-11-03 04:18:00,
2013-11-02 23:23:00,40.8,33.3,29.49,SW,231,0.0,0.0,74,0.00,,,0.00,meteohub,2013-11-03 04:23:00,
2013-11-02 23:28:00,40.6,33.1,29.49,SW,232,0.0,0.0,74,0.00,,,0.00,meteohub,2013-11-03 04:28:00,
2013-11-02 23:33:00,40.6,33.3,29.49,SW,232,0.0,0.0,75,0.00,,,0.00,meteohub,2013-11-03 04:33:00,
2013-11-02 23:38:00,40.5,33.1,29.49,SW,232,0.0,0.0,75,0.00,,,0.00,meteohub,2013-11-03 04:38:00,
2013-11-02 23:43:00,40.3,33.1,29.49,SW,232,0.0,0.0,75,0.00,,,0.00,meteohub,2013-11-03 04:43:00,
2013-11-02 23:48:00,40.3,33.3,29.49,WSW,237,0.0,0.0,76,0.00,,,0.00,meteohub,2013-11-03 04:48:00,
2013-11-02 23:53:00,40.3,33.3,29.49,WSW,240,0.0,0.0,76,0.00,,,0.00,meteohub,2013-11-03 04:53:00,
2013-11-02 23:58:00,40.1,33.1,29.49,SW,235,0.0,0.0,76,0.00,,,0.00,meteohub,2013-11-03 04:58:00,